Wind_Speed
35 35 36 37 37 38 39 40 41 42 43 44 44 44 45 46 47 48 49 50 52 53 53 53 54 55 55 55 53 53 53 51 50 49 48 48 47 47 44 43 42 42 42
32 33 34 35 36 36 36 37 39 41 42 43 43 44 45 46 46 47 48 49 51 52 53 53 54 54 55 55 54 54 53 52 51 50 49 49 49 49 47 45 44 43 43
31 32 33 34 35 35 36 36 37 39 40 41 42 42 43 44 45 46 47 49 50 51 53 54 54 53 53 53 54 53 52 52 52 52 51 51 51 48 47 45 45 45 45
30 30 31 32 32 33 33 34 35 35 37 38 39 41 41 42 43 44 45 46 48 49 51 52 53 54 53 53 52 52 53 54 54 54 53 53 51 50 48 47 47 46 46
27 28 28 29 29 29 30 31 32 33 33 35 36 38 39 40 41 42 43 44 45 47 48 49 50 52 52 52 52 52 52 53 54 53 52 52 53 52 51 50 50 50 48
24 26 26 27 28 29 30 30 31 31 32 33 34 35 37 39 40 41 42 43 43 43 45 47 48 49 50 50 51 52 52 51 51 52 53 53 52 52 52 52 51 51 49
22 23 24 26 26 26 26 27 28 29 30 31 32 33 34 36 37 39 40 40 41 42 42 43 45 47 48 49 50 51 51 51 51 51 52 52 52 52 52 53 52 51 50
19 21 22 23 23 24 24 25 26 27 27 28 28 29 30 31 32 35 37 37 38 38 39 40 42 44 46 47 48 49 50 50 51 51 51 51 52 53 53 53 53 52 51
17 18 18 18 19 20 21 22 22 23 23 24 25 26 27 29 30 31 33 34 35 35 36 37 39 41 44 46 46 46 47 48 50 50 50 50 51 52 52 52 51 52 52
17 16 16 16 16 16 17 18 19 20 21 22 22 22 24 26 28 28 28 29 31 32 32 33 36 38 40 43 45 46 47 47 48 48 48 49 49 50 51 51 51 51 52
14 15 14 14 13 14 15 16 17 18 18 19 19 19 21 21 22 24 25 26 27 29 30 31 32 34 36 39 41 43 45 47 48 47 48 48 49 48 50 51 51 52 53
12 12 13 12 13 13 14 15 15 15 16 16 17 17 17 17 18 20 22 24 26 27 29 30 30 31 33 36 38 40 44 46 46 45 46 48 49 49 50 51 52 52 52
10 10 10 11 11 12 12 12 13 13 14 14 14 14 15 15 16 18 19 20 22 24 27 28 29 30 31 33 35 38 41 42 42 43 45 46 48 48 49 50 51 52 53
9 9 9 8 9 10 10 10 11 13 13 13 13 13 14 14 15 16 16 17 18 20 22 24 25 27 29 31 33 36 38 39 41 42 43 44 45 46 47 48 50 50 52
8 8 8 8 8 9 9 10 11 12 13 13 13 13 12 13 14 14 15 16 18 19 20 22 23 26 27 29 30 31 34 37 39 39 40 42 44 45 46 47 48 49 50
8 8 8 8 9 9 10 10 11 12 13 13 13 13 13 13 14 14 15 16 17 18 20 22 24 26 26 28 29 30 33 35 37 39 41 42 44 44 45 46 47 46 47
9 9 9 10 10 11 11 12 13 13 13 13 13 14 14 15 16 16 17 18 19 20 22 23 24 25 27 28 29 31 33 35 36 37 39 41 43 43 44 44 44 44 44
11 11 11 12 12 12 12 13 14 15 15 15 15 15 16 17 18 18 19 20 21 21 22 24 25 27 28 29 30 31 33 34 36 38 38 40 41 41 42 43 42 42 42
12 12 13 13 13 13 14 15 16 16 17 18 18 19 18 19 20 20 21 22 22 23 25 26 28 29 28 29 30 31 32 34 36 37 37 38 38 39 40 41 41 41 41
14 14 14 15 15 16 17 17 18 19 20 20 21 21 21 21 22 23 24 25 25 27 28 29 30 30 30 30 30 31 32 33 33 34 36 37 38 39 40 40 40 40 40
15 16 16 17 18 18 19 20 21 22 23 23 23 23 23 24 25 26 26 27 28 28 30 30 31 31 31 32 32 31 32 32 33 34 35 36 37 38 38 39 39 39 39
18 18 18 19 20 21 21 22 23 24 25 26 27 27 27 27 27 28 29 29 30 30 31 32 31 31 31 32 32 32 32 33 33 34 35 36 36 36 37 37 37 37 37
20 21 21 22 22 23 24 24 25 26 27 28 29 29 30 30 30 31 31 32 32 32 33 32 32 32 32 32 33 33 33 33 33 33 34 34 34 34 34 35 35 35 36
23 24 24 25 25 26 26 27 28 29 29 30 31 31 32 32 33 33 33 34 35 35 35 34 33 33 33 33 34 34 33 33 33 33 33 33 33 33 34 34 34 34 34
26 26 26 27 28 28 29 30 31 32 32 33 33 33 33 34 34 35 36 37 37 37 36 35 35 34 34 34 34 33 33 33 33 32 33 33 33 32 33 34 34 33 33
27 28 28 29 29 30 31 31 32 33 34 34 35 35 36 36 38 38 39 39 38 37 36 36 35 35 35 35 35 34 34 34 34 34 34 33 33 32 33 33 33 33 34
Wind_Direction
260 261 262 262 262 263 264 266 265 264 264 263 263 263 261 259 258 256 255 254 253 252 251 252 252 251 250 250 250 251 251 252 253 255 256 256 257 258 258 260 261 263 264
262 263 264 263 264 265 266 266 265 265 264 263 262 263 262 260 258 257 256 255 254 252 251 251 251 250 249 248 249 250 251 251 253 254 255 256 256 257 258 259 260 261 262
262 264 264 264 265 266 267 267 267 266 265 263 263 262 261 260 258 257 257 256 254 252 251 250 249 249 249 248 249 249 250 251 252 253 254 255 256 255 256 258 259 260 261
264 265 265 266 269 269 269 269 270 269 267 265 264 262 261 260 257 257 257 256 255 253 251 249 249 249 248 247 247 248 250 251 251 252 253 254 255 255 253 256 258 259 261
266 267 267 268 270 271 271 271 272 271 269 267 265 264 261 259 258 258 257 256 256 255 253 251 249 247 247 247 247 248 250 251 252 252 252 253 255 255 255 255 257 259 261
270 271 271 271 272 272 272 273 272 272 271 269 268 266 263 261 259 258 258 257 256 255 253 251 249 248 247 247 247 248 250 251 252 253 252 253 254 254 256 258 258 259 260
276 277 276 274 273 273 273 275 274 273 272 271 270 269 266 263 262 259 258 257 256 255 253 252 251 249 247 247 247 247 250 252 252 253 252 252 253 253 256 258 259 260 261
280 282 282 279 275 274 275 276 277 277 276 274 270 269 267 265 264 261 259 257 256 254 253 253 251 250 249 248 248 249 250 251 252 252 251 251 252 253 255 257 259 259 261
285 286 285 283 282 281 280 279 280 281 281 279 274 272 267 265 264 262 260 258 256 256 256 255 255 253 251 249 248 249 250 251 251 251 251 252 254 255 256 257 259 261 262
287 287 287 285 285 287 287 285 287 286 284 284 279 275 270 266 263 263 262 259 257 257 258 258 257 254 252 251 250 250 251 252 253 252 253 253 255 255 257 259 261 263 264
289 290 291 290 289 290 293 294 294 293 293 291 285 279 275 271 266 264 263 261 259 258 260 261 258 256 254 252 251 253 253 254 253 252 253 253 255 258 260 261 262 263 264
294 294 293 292 291 291 294 297 300 299 298 296 290 286 282 276 271 269 267 265 263 263 263 263 261 259 257 254 253 253 254 256 254 254 255 255 256 259 261 262 264 264 266
295 298 298 295 294 296 299 301 303 302 303 301 297 294 290 284 280 278 276 273 269 267 267 267 264 262 261 259 255 255 255 257 257 257 258 256 257 259 262 264 266 266 267
298 302 302 298 300 303 305 308 308 308 311 310 308 305 300 294 290 287 285 282 277 275 272 269 267 266 266 263 260 259 257 257 259 258 258 258 258 261 264 266 267 268 269
304 303 302 301 303 309 312 314 316 320 319 318 315 314 309 305 303 296 292 289 285 282 278 275 272 274 272 268 267 266 261 259 259 261 260 259 261 263 266 268 269 270 270
308 307 305 310 313 312 312 315 318 322 320 317 315 312 314 314 311 302 296 295 294 288 284 283 280 279 275 272 271 267 264 265 265 265 263 263 264 266 269 271 272 273 272
308 312 309 310 314 315 312 315 319 322 321 318 316 313 312 313 311 306 303 301 298 294 289 287 286 285 283 279 276 272 270 267 268 268 267 266 266 268 271 272 274 275 274
309 310 310 308 311 315 317 316 317 318 318 317 315 313 311 313 312 311 308 304 301 299 297 295 292 291 286 282 279 277 276 272 270 269 268 267 267 269 271 273 273 274 274
309 311 311 312 310 309 311 310 312 314 315 315 315 313 309 309 310 310 308 304 301 300 300 298 297 294 290 286 283 283 279 275 273 272 270 269 270 271 273 274 274 273 273
305 308 309 310 312 309 307 307 307 308 309 311 312 313 312 309 307 307 307 305 303 302 303 302 299 295 292 289 288 285 281 278 278 276 273 272 273 273 274 274 273 272 273
301 305 306 306 308 309 307 305 303 304 305 307 308 310 310 309 308 307 306 305 303 302 302 302 300 296 294 293 292 288 284 282 281 279 277 276 276 275 275 274 273 273 274
298 299 301 303 304 305 306 306 303 302 302 302 303 304 305 306 305 306 306 306 304 302 302 301 300 297 296 295 293 290 286 283 281 279 278 278 278 277 277 276 276 275 275
295 296 296 299 301 302 303 303 304 303 302 301 300 300 301 302 303 303 304 304 304 302 302 301 299 298 297 295 293 290 286 284 282 281 280 281 281 279 278 277 277 276 276
293 294 295 296 297 299 300 300 301 302 301 301 301 300 300 300 301 301 302 302 303 303 301 300 299 299 297 296 294 290 286 284 282 282 282 282 282 280 279 278 278 277 277
292 293 293 294 295 297 299 299 300 301 301 301 301 301 301 300 300 301 301 302 302 302 301 299 299 299 298 297 296 293 287 284 282 282 282 282 281 281 281 280 278 277 277
292 293 293 294 295 296 298 299 299 299 300 300 300 300 301 301 301 301 301 301 300 300 300 298 297 297 296 295 294 291 287 285 283 283 283 283 282 281 281 281 279 278 278
Height
5723 5723 5723 5723 5723 5723 5723 5723 5722 5722 5722 5722 5722 5723 5724 5725 5726 5727 5729 5731 5733 5736 5739 5743 5746 5749 5753 5756 5760 5763 5766 5769 5771 5773 5775 5777 5779 5780 5782 5783 5783 5784 5784
5715 5715 5715 5714 5714 5713 5713 5712 5711 5711 5711 5711 5711 5711 5712 5712 5714 5715 5717 5719 5721 5723 5726 5730 5733 5737 5740 5744 5747 5750 5753 5756 5759 5762 5764 5766 5768 5769 5771 5772 5773 5774 5774
5707 5707 5706 5706 5705 5704 5703 5702 5701 5700 5699 5699 5699 5699 5700 5700 5701 5702 5704 5706 5708 5710 5714 5717 5721 5724 5728 5731 5735 5738 5741 5745 5747 5749 5752 5754 5757 5759 5760 5761 5762 5763 5764
5699 5698 5698 5697 5696 5694 5693 5692 5691 5689 5688 5688 5687 5687 5688 5689 5689 5691 5692 5693 5695 5698 5701 5704 5707 5711 5715 5719 5722 5726 5729 5732 5735 5737 5739 5742 5744 5747 5749 5750 5751 5752 5752
5692 5691 5690 5689 5688 5686 5685 5683 5682 5680 5679 5677 5676 5676 5676 5677 5678 5679 5681 5682 5684 5686 5688 5691 5694 5698 5702 5706 5710 5713 5716 5718 5721 5724 5726 5728 5731 5733 5736 5739 5740 5740 5741
5685 5684 5682 5681 5680 5679 5677 5675 5674 5672 5670 5668 5667 5666 5666 5666 5667 5668 5669 5671 5672 5674 5676 5678 5681 5685 5689 5693 5697 5700 5702 5705 5707 5710 5712 5715 5718 5721 5723 5725 5727 5728 5729
5679 5677 5675 5674 5672 5671 5669 5667 5665 5663 5661 5660 5658 5657 5656 5656 5657 5658 5659 5660 5661 5663 5665 5667 5669 5673 5676 5680 5683 5686 5690 5692 5694 5697 5700 5702 5705 5708 5710 5711 5713 5714 5716
5673 5671 5668 5666 5665 5663 5661 5660 5658 5656 5653 5652 5650 5648 5648 5647 5647 5648 5649 5650 5651 5653 5654 5656 5658 5661 5664 5667 5670 5673 5677 5679 5681 5684 5687 5689 5692 5694 5696 5698 5700 5700 5702
5667 5665 5662 5660 5658 5656 5654 5653 5651 5649 5647 5644 5642 5641 5640 5639 5639 5639 5639 5640 5641 5643 5644 5645 5647 5649 5652 5655 5658 5661 5664 5666 5668 5671 5674 5677 5679 5681 5683 5684 5685 5686 5687
5662 5659 5657 5655 5653 5651 5649 5647 5645 5643 5640 5638 5635 5633 5632 5631 5631 5630 5630 5631 5632 5633 5634 5635 5636 5637 5640 5643 5646 5649 5651 5653 5656 5658 5661 5664 5666 5667 5669 5670 5671 5671 5673
5657 5654 5652 5650 5649 5647 5645 5643 5640 5638 5635 5632 5630 5627 5625 5624 5623 5623 5623 5623 5623 5624 5625 5625 5626 5627 5629 5631 5634 5636 5639 5641 5643 5645 5648 5651 5653 5654 5655 5656 5657 5658 5658
5653 5651 5649 5647 5645 5643 5641 5639 5636 5633 5631 5627 5624 5622 5620 5618 5617 5616 5616 5616 5616 5616 5616 5616 5617 5618 5619 5621 5623 5625 5627 5629 5631 5633 5635 5637 5639 5640 5641 5642 5642 5643 5643
5650 5648 5646 5644 5642 5640 5638 5635 5633 5630 5627 5624 5621 5618 5616 5614 5612 5611 5610 5609 5609 5608 5608 5609 5609 5609 5610 5611 5612 5614 5616 5617 5619 5621 5623 5624 5626 5627 5628 5628 5628 5628 5628
5647 5645 5643 5641 5639 5637 5635 5633 5630 5627 5624 5621 5618 5615 5613 5611 5609 5607 5605 5604 5603 5602 5601 5602 5602 5602 5601 5602 5602 5603 5605 5606 5608 5609 5611 5612 5613 5614 5614 5614 5614 5613 5613
5645 5642 5641 5639 5637 5635 5633 5630 5628 5625 5622 5619 5616 5613 5610 5608 5606 5604 5602 5601 5599 5598 5597 5596 5595 5595 5594 5594 5594 5594 5595 5596 5597 5598 5599 5600 5600 5601 5600 5600 5600 5599 5599
5642 5640 5638 5637 5635 5633 5631 5628 5626 5623 5620 5617 5614 5611 5609 5606 5603 5601 5599 5597 5596 5593 5592 5590 5589 5588 5587 5586 5586 5585 5586 5586 5586 5587 5587 5587 5588 5588 5588 5587 5587 5586 5584
5640 5638 5636 5634 5632 5631 5628 5626 5623 5620 5618 5615 5612 5609 5606 5604 5601 5598 5595 5593 5591 5589 5587 5585 5583 5581 5580 5578 5577 5576 5575 5575 5575 5575 5575 5575 5576 5576 5575 5574 5573 5572 5570
5637 5635 5633 5632 5630 5627 5625 5623 5621 5618 5615 5612 5609 5606 5603 5600 5597 5594 5591 5588 5586 5583 5581 5579 5577 5574 5572 5570 5568 5566 5564 5564 5564 5564 5564 5564 5564 5563 5563 5562 5560 5558 5557
5634 5632 5630 5628 5626 5624 5622 5620 5617 5615 5612 5609 5606 5603 5600 5596 5593 5590 5587 5584 5581 5578 5576 5573 5570 5567 5564 5561 5558 5556 5554 5553 5553 5552 5552 5551 5551 5551 5550 5548 5547 5546 5544
5631 5629 5627 5624 5622 5620 5618 5616 5613 5611 5608 5605 5602 5599 5595 5592 5589 5586 5582 5579 5576 5572 5569 5566 5562 5558 5555 5552 5549 5546 5544 5543 5542 5541 5540 5539 5539 5538 5536 5534 5533 5533 5533
5627 5625 5623 5620 5618 5616 5614 5611 5609 5606 5603 5600 5597 5594 5590 5587 5583 5580 5576 5573 5569 5566 5562 5558 5554 5550 5546 5543 5539 5537 5534 5533 5532 5530 5529 5528 5526 5525 5523 5521 5521 5521 5520
5622 5620 5618 5616 5614 5611 5609 5606 5603 5601 5598 5594 5591 5588 5585 5581 5577 5574 5570 5566 5562 5558 5554 5550 5545 5541 5537 5533 5530 5527 5524 5523 5521 5520 5518 5517 5515 5513 5511 5510 5509 5507 5506
5617 5615 5613 5611 5608 5606 5603 5600 5597 5594 5591 5588 5584 5581 5577 5574 5570 5566 5562 5558 5553 5549 5545 5541 5537 5532 5528 5524 5521 5518 5515 5512 5511 5509 5508 5506 5504 5502 5500 5499 5497 5496 5494
5611 5609 5607 5604 5602 5599 5596 5593 5590 5587 5583 5580 5577 5573 5570 5566 5562 5558 5553 5549 5544 5540 5535 5531 5526 5523 5519 5515 5511 5508 5505 5503 5501 5499 5497 5495 5493 5491 5490 5488 5486 5485 5483
5604 5602 5599 5597 5594 5592 5589 5585 5582 5579 5575 5572 5568 5564 5561 5557 5553 5548 5544 5539 5534 5529 5525 5520 5516 5512 5509 5505 5501 5497 5495 5493 5491 5489 5487 5485 5483 5481 5479 5477 5476 5474 5473
5596 5594 5591 5589 5586 5583 5580 5577 5573 5570 5566 5563 5559 5555 5551 5547 5543 5538 5533 5528 5523 5518 5514 5509 5506 5502 5498 5494 5491 5488 5485 5483 5481 5479 5477 5475 5473 5471 5469 5467 5466 5465 5464